Regional Weather Roundup
Issued by NWS Sterling, VA

Home | Current Version | Previous Version | Graphics & Text | Print | Product List | Glossary On
Versions: 1 2 3 4 5 6 7 8 9 10 11 12 13 14 15 16 17 18 19 20 21 22 23 24 25 26 27 28 29 30 31 32 33 34 35 36 37 38 39 40 41 42 43 44 45 46 47 48 49 50
000
ASUS41 KLWX 220311
RWRLWX

REGIONAL WEATHER ROUNDUP
NATIONAL WEATHER SERVICE BALTIMORE MD/WASHINGTON DC
1100 PM EDT WED JUN 21 2017

Note: "FAIR" indicates few or no clouds below 12,000 feet
with no significant weather and/or obstructions to visibility.
 TC=TEMPERATURE CELSIUS

 * =Non NWS site. Station does not report precipitation (e.g. rain,
    snow, etc.), thunder, or fog.

DCZ001-MDZ009-015-VAZ040>042-051-053>054-220400-
WASHINGTON METRO

CITY           SKY/WX    TMP DP  RH WIND       PRES   REMARKS
WASHINGTON NAT MOCLDY    81  72  74 S7        29.97S
DULLES         CLOUDY    75  65  70 SE3       29.98R
ANDREWS AFB    PTCLDY    78  68  72 S3        29.97S
FT BELVOIR     CLOUDY    79  69  69 CALM      29.97S
QUANTICO       MOCLDY    81  70  69 SW8       29.98S
COLLEGE PARK*  CLOUDY    74  63  68 CALM      29.97S
LEESBURG*      PTCLDY    77  66  69 CALM      29.99S
MANASSAS*      CLOUDY    73  70  90 S5        29.98R
GAITHERSBURG*  CLOUDY    72  64  76 CALM      30.00S

$$

MDZ006>007-011-014-220400-
BALTIMORE METRO

CITY           SKY/WX    TMP DP  RH WIND       PRES   REMARKS
BWI AIRPORT    MOCLDY    72  65  78 CALM      29.97S
MD SCIENCE CTR   N/A     78  65  63 MISG      29.97F
MARTIN STATE   PTCLDY    70  70 100 CALM      29.99S
ANNAPOLIS      PTCLDY    75  71  87 CALM      29.97S
FORT MEADE*    PTCLDY    68  64  88 CALM      30.00S

$$

MDZ012-015-019>023-220400-
MARYLAND EASTERN SHORE

CITY           SKY/WX    TMP DP  RH WIND       PRES   REMARKS
OCEAN CITY     CLOUDY    68  66  93 SE8       30.00R
SALISBURY      CLOUDY    76  73  91 SW9       29.98S
BAY BRIDGE AP* PTCLDY    73  68  83 CALM      29.97F
CAMBRIDGE*     CLEAR     79  70  73 VRB5      29.98R
EASTON*        CLOUDY    74  66  76 CALM      30.02S

$$

MDZ017>025-220400-
SOUTHERN MARYLAND

CITY           SKY/WX    TMP DP  RH WIND       PRES   REMARKS
PATUXENT RIVER MOCLDY    79  69  71 SW12      29.98R
ST INIGOES     CLEAR     80  71  74 SW10      29.98R
LEONARDTOWN*   CLOUDY    79  68  69 SW6       30.00S

$$

MDZ003>005-220400-
NORTH CENTRAL MARYLAND

CITY           SKY/WX    TMP DP  RH WIND       PRES   REMARKS
FREDERICK*     MOCLDY    70  68  94 CALM      30.01S
HAGERSTOWN APT MOCLDY    72  67  84 CALM      29.99S
WESTMINSTER*   MOCLDY    70  66  88 CALM      30.00S

$$

MDZ501>502-220400-
WESTERN MARYLAND

CITY           SKY/WX    TMP DP  RH WIND       PRES   REMARKS
OAKLAND*       NOT AVBL
CUMBERLAND*    PTCLDY    70  70 100 CALM      30.04S

$$

VAZ025>031-220400-
SHENANDOAH VALLEY

CITY           SKY/WX    TMP DP  RH WIND       PRES   REMARKS
WINCHESTER*    CLOUDY    72  61  68 E3        29.99F
FRONT ROYAL*   CLOUDY    72  64  78 S3        29.99S
LURAY*         CLOUDY    72  68  88 CALM      30.01R
NEW MARKET*    CLOUDY    72  64  77 CALM      30.00S
STAUNTON*      CLOUDY    73  64  73 S3        30.05S
WAYNESBORO*    CLOUDY    69  65  86 SW5       30.05S

$$

WVZ021-048>050-054>055-220400-
EASTERN WEST VIRGINIA PANHANDLE

CITY           SKY/WX    TMP DP  RH WIND       PRES   REMARKS
MARTINSBURG    CLOUDY    68  63  84 CALM      29.98S
PETERSBURG*    CLOUDY    73  65  77 CALM      30.02S

$$

VAZ036>039-050-220400-
CENTRAL FOOTHILLS

CITY           SKY/WX    TMP DP  RH WIND       PRES   REMARKS
CHARLOTTESVILL CLOUDY    78  70  76 SW6       30.00S
CULPEPER*      PTCLDY    76  69  80 SW5       29.99S
ORANGE*        MOCLDY    73  68  83 S5        30.00S
GORDONSVILLE*  PTCLDY    75  70  84 SW3       30.00S
WARRENTON*     PTCLDY    76  65  68 SW3       29.99R

$$

VAZ055>057-220400-
NORTH AND CENTRAL PIEDMONT

CITY           SKY/WX    TMP DP  RH WIND       PRES   REMARKS
FREDERICKSBRG* CLEAR     78  70  76 SW9       29.98S
STAFFORD*      CLEAR     77  69  78 S3        30.02S

$$

NCZ024-NYZ072-PAZ021-071-VAZ022-071-220400-
OTHER REGIONAL OBSERVATIONS

CITY           SKY/WX    TMP DP  RH WIND       PRES   REMARKS
NEW YORK CITY  CLEAR     75  59  57 CALM      29.96R
PHILADELPHIA   PTCLDY    71  65  81 S5        29.97S
PITTSBURGH     MOCLDY    72  62  71 NE7       30.00R
ROANOKE        CLOUDY    74  62  66 W7        30.08R
RICHMOND       PTCLDY    76  71  85 SW8       30.02R
RALEIGH        MOCLDY    73  69  87 SW8       30.08R

$$

ANZ530>537-220400-
MARINE OBSERVATIONS

STATION/POSITION TIME  TEMP    WIND        PRES
                       AIR SEA DIR/SP/G
                 (UTC) (F)     (DEG/KT/KT) (MB)
THOMAS PT LIGHT  0300   76 77   80/  3/  4   N/A
BALT KEY BRIDGE  0242   76     130/  2/  3 1014.8R
COVE POINT       0242   80     240/ 12/ 17 1015.8R
LEWISETTA        0242   79 78  240/  9/ 11 1015.5R
SOLOMONS ISLAND  0242   79 77  220/ 14/ 15   N/A
PINEY POINT      0242          250/  7/  8   N/A

$$




USA.gov is the U.S. government's official web portal to all federal, state and local government web resources and services.